Weather in Artem

Russia / Primorsky Krai     43°21′17″N   132°11′08″E
temp.,
°C
wind,
m/s
gust,
m/s
humid.,
%
clouds,
%
prec.,
mm/h
press.,
hPa
HPBL,
m
31 july, sat
sat3101:00+22sse119566 0.0 100218
04:00+22se119420 0.0 100213
07:00+22sse0191100 0.0 100359
10:00+26s1270100 0.0 1003528
13:00+29sw44642 0.0 1002863
16:00+31s685545 0.0 1001997
19:00+28s58635 0.0 1002518
22:00+24sse25773 0.0 1003131
1 august, sun
sun101:00+22ese23845 0.0 100495
04:00+21ene128910 0.0 100374
07:00+22e138720 0.0 1004119
10:00+28se486238 0.0 1005842
13:00+31s575232 0.0 10041294
16:00+30s795513 0.0 10041098
19:00+27s59680 0.0 1005476
22:00+23ssw128557 0.0 100637
2 august, mon
mon201:00+21n119293 0.0 100732
04:00+22n128962 0.0 100660
07:00+22ene1287100 0.0 1007103
10:00+27ene01638 0.0 1007638
13:00+29sw335510 0.0 10061271
16:00+29ssw5557100 0.0 1006848
19:00+25ssw477298 0.0 1006371
22:00+22ssw128697 0.0 100759
3 august, tue
tue301:00+21ne119181 0.0 100727
04:00+21ese1189100 0.3 100656
07:00+21e1396100 3.4 1006139
10:00+22se31194100 7.7 1006567
13:00+24se41189100 1.4 1006613
16:00+27sse6977100 2.1 1006803
19:00+26sse488135 0.5 1006633
22:00+23se2594100 1.1 1007129
4 august, wed
wed401:00+23sse25969 3.0 1007154
04:00+22se129674 4.8 100730
07:00+22ese119612 3.1 100749
10:00+26s238465 3.1 1007432
13:00+29ssw45688 0.0 1006838
16:00+29ssw5772100 0.0 1005591
19:00+27ssw478161 0.0 1005442
22:00+24sse22974 0.0 100640